Regional Weather Roundup
Issued by NWS Raleigh/Durham, NC

Home | Current Version | Previous Version | Text Only | Print | Product List | Glossary On
Versions: 1 2 3 4 5 6 7 8 9 10 11 12 13 14 15 16 17 18 19 20 21 22 23 24 25 26 27 28 29 30 31 32 33 34 35 36 37 38 39 40 41 42 43 44 45 46 47 48 49 50
000
ASUS42 KRAH 310410
RWRRAH
NORTH CAROLINA WEATHER ROUNDUP
NATIONAL WEATHER SERVICE RALEIGH NC
1200 AM EDT SUN JUL 31 2016

NOTE: "FAIR" INDICATES FEW OR NO CLOUDS BELOW 12,000 FEET WITH NO
SIGNIFICANT WEATHER AND/OR OBSTRUCTIONS TO VISIBILITY.

NCZ001-053-055-056-065-067-310500-
WESTERN NORTH CAROLINA

CITY           SKY/WX    TMP DP  RH WIND       PRES   REMARKS
ASHEVILLE      CLEAR     70  66  87 CALM      30.12R
JEFFERSON      PTCLDY    67  63  86 CALM      30.17R
MORGANTON      PTCLDY    68  68 100 CALM      30.10R
HICKORY        PTCLDY    72  69  90 SW5       30.04R
RUTHERFORDTON    N/A     71  71 100 CALM      30.06S
MOUNT AIRY     PTCLDY    74  72  93 CALM      30.06R
BOONE          CLEAR     66  65  98 CALM      30.17R
$$

NCZ021-022-025-041-071-084-088-310500-
CENTRAL NORTH CAROLINA

CITY           SKY/WX    TMP DP  RH WIND       PRES   REMARKS
CHARLOTTE      MOCLDY    77  71  82 CALM      30.03R
GREENSBORO     CLOUDY    81  71  71 SW5       30.01R
WINSTON-SALEM  PTCLDY    78  72  81 SE3       30.04R
RALEIGH-DURHAM MOCLDY    78  74  87 SE6       30.01S
FORT BRAGG     MOCLDY    79  73  84 SW3       29.99S
FAYETTEVILLE   MOCLDY    80  72  76 S7        29.99F
BURLINGTON     CLOUDY    80  71  74 S5        30.01R
LAURINBURG     CLOUDY    77  73  87 CALM      30.01S
$$

NCZ011-015-027-028-043-044-047-080-103-310500-
NORTHEASTERN NORTH CAROLINA

CITY           SKY/WX    TMP DP  RH WIND       PRES   REMARKS
ROCKY MT-WILSO CLOUDY    75  75 100 S5        30.00F
GREENVILLE     CLOUDY    77  77 100 CALM      30.01F
WASHINGTON     LGT RAIN  76  75  97 CALM      30.00F
ELIZABETH CITY CLOUDY    76  75  97 SW5       29.98S
MANTEO         CLOUDY    83  83  99 SW16      29.98F HX  99
CAPE HATTERAS  CLOUDY    81  80  97 SW9       30.01S
$$

NCZ078-087-090-091-093-098-101-310500-
SOUTHEASTERN NORTH CAROLINA

CITY           SKY/WX    TMP DP  RH WIND       PRES   REMARKS
LUMBERTON      CLOUDY    76  73  91 CALM      29.99S
GOLDSBORO      MOCLDY    78  78 100 E3        29.98F
KINSTON        MOCLDY    78  75  92 CALM      30.01S
KENANSVILLE    NOT AVBL
NEW BERN       MOCLDY    81  77  88 S3        30.02R
CHERRY POINT   PTCLDY    83  77  82 SW9       30.02R
BEAUFORT       CLEAR     84  81  90 SW12      30.02S HX  99
JACKSONVILLE   MOCLDY    82  75  79 SW6       30.00F
WILMINGTON     CLOUDY    82  76  81 SW8       30.02S
$$




USA.gov is the U.S. government's official web portal to all federal, state and local government web resources and services.